SCP
0 0 0 0 0 0 0 0 0 0 0 0 0 0 0 0 0 0 1 1 2 2 2 2 2 3 4 4 3 3 4 4 4 4 3 2 2 2 2 2 2 1 1 1 1 2 2 1 1
0 0 0 0 0 0 0 0 0 0 0 0 0 0 0 0 0 1 1 2 2 2 2 2 2 3 4 4 4 4 4 4 4 4 4 3 2 2 2 2 2 2 1 1 1 2 2 2 2
0 0 0 0 0 0 0 0 0 1 1 0 0 0 0 0 1 1 1 2 2 2 2 2 2 3 3 4 4 4 3 4 4 4 4 4 3 3 2 2 2 2 2 1 1 1 2 2 2
0 0 0 0 0 0 0 0 0 1 1 1 1 1 1 1 1 1 1 2 2 2 2 2 2 3 3 4 4 4 4 3 3 4 4 4 3 3 2 2 2 2 2 2 2 1 1 2 2
0 0 0 0 0 0 0 0 0 1 1 1 1 1 1 1 1 1 2 2 2 2 2 2 2 2 3 3 4 4 4 3 3 4 3 3 3 2 2 2 2 1 1 2 2 2 1 2 2
0 0 0 0 0 0 0 1 1 1 1 1 1 1 1 1 1 2 2 2 2 2 2 2 2 2 3 3 3 4 4 3 3 3 4 3 3 2 2 2 2 1 1 1 2 2 2 2 1
0 0 0 0 0 0 1 1 1 1 1 1 1 1 2 2 2 2 3 3 2 2 2 2 2 2 2 3 3 3 3 3 3 3 4 3 3 3 2 2 2 1 1 1 2 2 2 2 1
0 0 0 0 0 0 1 1 1 1 1 1 1 2 2 2 3 4 4 3 3 2 2 2 2 2 3 3 3 3 3 3 2 3 3 3 3 3 3 2 2 1 1 1 1 2 2 2 1
0 0 0 0 0 1 1 1 1 1 1 2 1 2 3 4 5 5 4 3 3 2 2 2 3 3 3 4 4 4 3 3 2 2 3 3 3 3 3 2 2 2 1 1 1 1 2 2 1
0 0 0 0 0 1 1 1 1 1 1 2 2 2 4 5 5 5 3 3 2 2 2 3 3 3 3 4 4 4 3 2 2 2 2 2 3 3 3 2 2 2 1 1 1 1 1 1 1
0 0 0 0 0 0 1 1 1 1 1 1 2 3 5 5 5 4 3 3 2 2 2 3 3 4 4 3 3 3 2 1 1 1 1 2 2 2 2 2 2 2 2 1 1 1 2 2 1
0 0 0 0 0 0 0 1 1 0 1 1 2 4 5 5 4 3 3 3 3 3 3 3 4 4 4 3 3 2 2 1 1 1 1 1 2 2 2 2 2 2 2 2 2 2 2 2 2
0 0 0 0 0 0 0 0 1 1 1 2 3 5 6 5 4 3 3 4 4 3 3 3 4 5 5 4 3 3 2 2 1 1 2 2 2 2 2 2 2 2 2 2 2 2 2 2 2
0 0 0 0 0 0 0 0 0 1 1 2 3 4 5 5 4 3 4 4 4 4 4 4 4 5 6 5 4 3 3 2 2 2 2 2 2 2 2 2 2 2 2 3 3 3 2 2 2
0 0 0 0 0 0 0 0 0 1 1 2 3 3 4 4 3 3 3 4 4 4 4 5 5 5 6 6 5 4 3 3 2 2 2 3 3 3 2 2 2 2 2 3 3 3 3 3 3
0 0 0 0 0 0 0 0 0 1 1 1 2 2 3 3 3 3 3 4 4 4 4 4 4 4 5 5 4 4 3 3 2 2 2 3 4 3 3 2 2 1 2 3 3 4 3 3 3
0 0 0 0 0 0 0 0 0 1 1 1 1 2 2 2 2 2 2 3 3 4 3 4 4 4 4 4 3 3 3 2 2 2 2 3 3 3 3 2 1 1 1 3 4 4 4 4 4
0 0 0 0 0 0 0 0 0 1 1 2 2 2 2 2 2 2 2 3 3 3 3 3 3 3 4 4 3 3 2 2 2 2 2 2 2 2 2 2 1 1 1 2 3 4 4 4 4
0 0 0 0 0 0 0 0 0 1 1 2 3 3 3 3 3 3 3 3 3 3 3 3 3 4 4 4 4 4 3 2 2 1 1 1 1 2 2 2 1 1 1 1 1 3 3 4 4
0 0 0 0 1 0 0 0 0 1 1 2 3 4 4 4 4 4 3 3 3 3 3 3 3 3 4 5 5 5 4 3 2 2 1 1 1 1 2 2 1 1 1 1 1 1 2 2 2
0 0 0 1 1 1 0 0 0 1 1 2 3 4 4 4 5 4 4 3 3 3 3 3 3 3 4 5 6 6 5 4 3 2 2 1 1 1 1 1 1 1 1 1 1 1 1 1 1
0 0 0 1 1 1 1 0 1 1 1 2 2 3 3 4 4 4 3 3 3 3 2 2 3 3 4 5 7 7 6 5 4 3 2 2 2 2 2 1 1 1 1 1 1 1 1 1 1
0 0 0 0 1 1 1 0 1 1 1 2 2 3 3 3 3 2 2 3 3 3 3 3 3 4 4 4 5 6 5 4 4 3 3 3 2 2 2 2 1 1 1 1 1 1 1 1 1
0 0 0 0 1 1 1 1 1 1 2 2 3 3 4 4 3 3 3 4 4 4 4 3 3 4 3 3 3 4 4 4 4 4 4 4 3 2 2 2 1 1 1 1 1 1 1 1 1
0 0 0 0 0 0 0 1 1 1 1 2 3 4 4 4 5 5 5 4 4 5 5 5 5 5 4 2 2 2 3 3 4 4 4 3 3 2 2 1 1 1 1 1 2 2 2 2 2
0 0 0 0 0 0 0 1 1 1 1 1 2 4 4 5 5 5 4 4 4 5 5 6 6 6 4 2 2 2 2 2 2 2 2 2 2 2 2 1 1 1 1 2 2 2 2 2 2
0 0 0 0 0 0 0 0 0 1 1 1 2 3 5 5 5 4 3 2 3 4 5 5 5 4 3 2 2 2 2 1 1 1 1 1 1 1 2 2 2 2 1 1 2 2 2 2 2
0 0 0 0 0 0 0 0 0 0 1 1 2 3 5 5 5 3 2 2 2 3 4 4 4 3 3 2 2 2 2 2 1 1 1 1 1 1 1 1 2 2 1 1 1 1 1 2 2
0 0 0 0 0 0 0 0 0 0 1 1 2 3 5 5 4 3 3 2 2 3 4 4 3 3 2 2 2 2 2 1 1 1 1 1 1 1 1 1 1 1 1 1 1 1 1 2 2
0 0 0 0 0 0 0 0 0 0 1 1 2 4 5 6 4 3 3 2 2 3 3 4 3 2 2 2 2 1 1 1 1 1 1 1 1 0 0 0 0 0 0 0 1 1 1 2 2
Wind_Speed
3 3 2 2 5 5 2 3 2 2 1 0 1 3 4 2 3 2 1 8 10 9 7 10 12 11 11 11 11 10 10 11 11 11 11 11 11 10 10 10 10 9 9 9 9 9 9 9 8
3 2 2 4 5 2 4 3 2 2 2 1 2 3 3 1 2 4 4 7 10 10 7 8 12 11 11 11 11 11 10 11 11 11 11 11 11 10 9 9 9 9 9 9 9 8 8 8 7
2 1 3 4 3 3 3 3 3 1 1 0 2 2 2 2 4 5 5 10 10 8 7 8 13 11 11 11 11 11 11 10 10 11 11 11 10 10 9 9 9 9 8 9 9 8 7 7 7
2 3 5 4 1 4 4 4 1 0 1 2 2 2 1 1 5 5 10 12 10 8 6 8 13 11 11 11 11 11 11 10 9 10 10 10 10 9 8 8 8 8 8 8 7 7 6 6 6
3 4 5 2 4 4 4 3 2 1 0 1 2 2 1 2 6 10 12 11 10 8 6 7 12 12 11 11 10 10 10 10 9 9 9 9 9 8 8 7 7 7 7 7 6 6 6 6 6
4 5 4 1 4 4 3 2 1 1 0 1 2 2 0 2 7 10 11 9 8 8 6 5 11 12 11 10 10 10 10 9 9 9 9 8 8 8 7 6 6 6 6 5 5 5 5 5 5
4 4 3 2 3 4 2 0 1 2 1 2 4 3 1 2 5 9 9 8 7 7 6 4 5 8 10 10 9 9 9 9 9 8 8 8 8 7 7 6 6 5 5 5 5 5 4 4 3
5 5 1 2 3 4 2 1 0 1 2 2 4 5 5 5 8 8 7 7 6 5 5 4 4 4 4 6 9 9 8 8 8 8 8 7 7 6 6 5 5 5 5 4 4 4 3 3 3
4 4 2 4 4 4 1 1 2 1 2 1 2 3 4 12 13 10 7 5 5 6 4 4 4 4 4 4 6 7 7 6 6 6 7 6 2 2 3 4 4 4 4 4 4 4 4 4 3
4 3 7 5 4 3 3 2 2 1 1 1 1 3 9 13 14 12 10 10 9 8 7 5 5 4 4 4 3 3 3 3 3 2 3 2 2 1 2 3 4 4 4 4 4 4 4 3 2
4 6 5 5 5 3 3 3 2 3 4 6 6 9 12 13 12 12 11 10 9 8 7 6 6 5 4 3 3 2 2 2 2 2 3 2 2 1 1 1 1 1 2 2 2 2 2 2 1
3 5 5 5 3 2 3 3 2 5 8 5 7 11 12 14 14 13 12 10 7 7 7 6 6 5 5 3 3 3 2 2 2 2 3 2 1 1 1 1 1 1 1 1 1 1 1 2 2
4 5 4 5 5 5 4 5 3 5 4 1 6 10 11 12 10 8 7 7 7 8 7 7 7 6 5 4 3 3 2 2 2 2 2 3 2 2 1 1 1 1 1 1 1 1 1 1 1
4 4 5 5 5 3 2 4 1 5 1 4 6 8 10 10 9 7 7 8 8 9 8 7 7 6 5 4 3 3 3 2 2 2 3 3 2 2 1 1 1 1 1 1 1 1 1 1 1
2 3 5 3 3 2 2 3 3 3 3 4 5 6 7 6 7 8 9 8 8 8 8 8 8 6 6 5 4 3 3 3 3 2 3 3 3 2 2 1 1 1 1 1 1 1 1 1 1
2 2 3 5 1 2 3 5 5 1 4 3 4 5 5 5 6 6 6 6 6 7 7 7 7 7 6 5 4 3 2 3 2 2 2 3 3 3 2 1 1 1 1 1 1 1 1 1 1
3 1 3 6 2 0 2 5 4 2 4 5 4 4 4 4 3 3 4 5 6 7 7 7 7 7 6 5 3 3 2 2 2 2 2 2 3 3 3 2 1 2 1 1 1 1 1 1 0
4 3 3 4 4 2 2 5 5 3 4 5 4 3 3 4 4 4 4 5 5 6 6 7 6 6 5 4 3 2 2 2 2 2 2 3 2 3 3 2 2 2 2 1 1 1 1 1 1
4 3 5 7 5 2 5 6 5 3 2 3 3 3 4 4 3 3 4 5 5 5 6 6 6 5 5 4 4 3 3 2 2 2 2 3 3 3 3 2 2 2 2 2 2 2 2 1 1
4 3 5 7 3 2 3 4 4 3 4 5 5 5 5 4 3 3 4 4 5 5 5 6 6 6 6 4 4 3 3 2 2 1 2 2 3 3 3 3 3 3 2 2 2 2 2 1 1
5 5 5 5 4 2 1 4 3 2 1 1 3 4 4 5 5 5 5 4 4 5 5 5 5 5 5 4 3 3 2 1 1 1 1 2 2 3 3 3 3 3 3 3 3 3 3 2 1
6 7 6 4 1 4 1 3 5 2 2 2 3 3 3 4 4 4 5 5 5 5 5 4 5 5 5 5 5 5 4 4 3 2 2 1 2 2 2 2 3 3 3 3 3 3 3 3 2
7 4 4 3 3 2 1 2 6 1 3 5 4 4 4 4 5 6 6 6 5 5 5 5 5 4 4 5 6 5 4 3 2 2 2 2 1 2 2 2 2 2 2 3 3 3 3 3 3
4 3 3 4 3 2 4 4 6 3 5 5 4 4 4 4 5 5 4 4 4 4 4 4 5 4 4 5 5 5 5 4 4 3 2 2 1 1 2 2 2 2 2 2 3 3 4 3 3
4 5 3 3 2 6 2 3 7 5 4 5 5 5 4 4 5 5 5 5 5 5 5 5 5 4 4 4 4 4 5 5 5 4 3 2 1 1 2 2 2 2 2 2 2 2 2 3 3
5 8 7 5 5 4 1 4 6 4 3 2 2 2 3 3 4 5 6 6 5 5 5 5 5 4 4 4 4 3 3 3 2 3 3 3 2 2 2 3 3 2 2 2 2 2 2 2 3
5 5 6 6 2 1 4 4 6 2 2 2 0 1 3 3 4 4 4 4 5 5 5 6 6 4 4 4 4 3 3 3 3 2 2 2 1 2 2 2 2 2 2 2 2 2 2 2 2
5 7 5 5 5 3 4 3 4 3 3 2 1 2 2 3 3 3 3 4 4 4 4 4 5 4 3 4 4 3 3 3 3 2 2 2 1 1 2 2 2 2 2 2 2 2 2 2 2
3 3 4 4 4 5 3 6 5 6 5 4 3 2 2 3 4 4 4 4 4 3 4 4 4 4 3 3 3 3 2 2 2 2 2 2 2 2 2 2 2 1 1 1 2 2 2 3 2
4 5 6 5 4 4 4 7 3 3 3 3 2 2 1 2 3 3 4 5 4 4 4 4 4 4 4 4 3 3 2 2 2 2 2 2 2 2 2 2 2 2 2 2 2 2 2 3 3
Wind_Direction
161 123 112 82 56 47 316 272 251 292 311 351 90 114 127 138 172 196 136 139 137 143 153 155 153 148 142 137 134 131 128 129 127 126 125 125 123 121 123 128 129 131 133 135 135 136 137 135 136
133 138 82 63 79 49 289 264 255 242 198 110 72 83 85 85 97 123 139 148 143 145 149 155 155 151 145 141 138 136 134 133 131 130 127 126 127 122 119 123 126 127 126 129 134 134 135 133 134
154 133 85 74 100 180 246 250 223 245 199 71 58 55 105 147 144 159 165 145 140 144 149 162 157 154 148 144 141 140 136 133 133 133 130 129 127 122 120 120 122 124 125 128 133 136 137 135 136
113 55 56 70 236 230 227 254 244 14 357 49 103 69 54 112 155 153 140 143 142 145 149 165 158 157 151 148 146 143 139 135 133 132 133 131 126 122 121 120 123 122 122 124 128 136 139 138 137
66 76 60 21 270 266 255 251 214 178 299 63 97 116 9 19 110 128 140 147 148 148 154 167 160 159 154 150 148 145 142 140 137 135 134 132 127 126 124 123 123 122 122 124 128 132 136 139 140
60 68 82 276 280 285 277 247 186 175 166 108 123 130 313 101 128 143 145 145 148 151 155 163 165 161 156 151 146 146 145 143 141 140 137 131 129 131 130 128 126 125 123 121 121 120 124 128 131
106 101 155 222 275 293 280 298 163 167 200 202 149 131 187 152 148 140 137 133 137 147 152 159 161 163 160 155 150 148 148 144 140 140 138 135 135 136 140 141 139 136 130 119 114 108 109 119 120
129 109 141 231 237 265 273 6 12 158 216 166 142 159 197 178 138 124 118 123 134 146 155 155 152 151 153 156 155 150 150 147 142 140 140 138 136 138 140 142 149 145 136 125 115 106 105 103 108
100 85 214 221 210 247 264 352 304 282 150 169 189 190 177 138 133 128 125 131 153 164 165 157 154 154 153 155 159 153 149 147 145 143 141 133 116 122 136 148 155 156 150 142 129 119 108 94 88
106 157 225 220 208 238 274 244 234 283 295 251 46 87 124 139 148 154 161 171 179 182 182 171 164 163 157 162 149 138 136 132 121 112 116 103 93 123 133 152 152 154 146 135 123 117 104 89 76
161 198 232 246 229 234 265 269 217 171 246 230 196 163 151 155 164 170 176 182 185 181 182 179 172 166 160 155 144 135 132 127 124 122 113 106 96 87 74 72 89 79 92 76 80 84 83 95 104
192 238 227 251 237 232 233 243 239 213 240 236 185 163 163 169 177 182 183 184 176 173 182 178 173 168 167 155 149 145 146 146 149 149 140 133 128 129 114 106 79 70 72 76 72 75 90 111 117
222 258 254 255 265 245 237 244 237 265 279 155 139 152 167 175 181 184 183 175 171 179 181 179 173 172 167 156 160 155 160 159 159 157 160 155 153 166 157 133 111 99 88 92 91 94 110 110 112
237 256 281 282 270 254 218 275 209 271 206 122 142 166 179 180 180 175 177 179 180 182 181 175 175 174 163 165 169 165 162 158 159 172 173 167 161 163 163 147 138 146 127 140 147 149 130 131 113
282 302 311 283 257 249 136 311 251 241 132 138 162 170 177 180 175 185 189 184 179 178 176 173 173 170 169 172 173 166 163 164 168 176 173 171 167 164 160 154 161 178 151 138 120 85 80 97 100
16 17 308 295 280 260 142 258 275 183 146 169 178 178 175 182 185 191 183 175 171 165 167 174 172 169 172 171 168 164 161 162 165 169 169 175 172 163 156 162 180 156 134 137 135 112 84 68 79
25 268 262 298 303 16 145 254 272 205 166 184 192 191 183 181 187 188 176 173 171 168 165 167 164 169 172 167 158 155 154 160 165 166 168 176 175 168 163 170 165 148 135 145 170 129 134 139 183
232 236 261 269 292 348 278 264 286 228 192 200 201 201 189 190 205 187 168 162 162 162 162 165 166 164 157 152 138 135 141 156 162 175 177 172 174 171 166 162 156 151 145 164 170 145 136 144 159
200 214 259 264 266 267 255 268 281 226 205 214 209 198 202 213 200 159 154 149 144 155 159 165 166 162 155 159 166 168 183 182 181 192 181 176 175 172 171 174 162 163 173 189 179 154 147 143 111
215 244 268 284 279 235 264 281 278 224 206 205 203 206 208 205 181 158 150 151 155 160 168 170 170 168 173 177 170 167 166 173 176 176 181 183 179 179 183 182 181 181 182 182 175 154 148 151 124
224 211 235 257 314 329 293 310 300 291 238 234 219 211 209 201 194 176 164 163 158 166 171 178 175 174 173 161 138 121 105 92 132 166 185 192 187 190 188 187 181 188 190 193 189 177 172 174 165
242 227 219 236 263 280 179 280 288 272 292 256 237 217 210 209 186 174 168 170 176 178 168 167 168 168 164 158 160 162 168 179 192 186 182 177 178 187 183 179 183 191 193 194 197 185 181 167 178
218 218 206 223 204 268 273 207 278 316 271 261 246 227 209 200 187 183 178 179 178 172 167 163 160 164 162 162 167 165 171 175 161 149 160 173 181 196 196 183 181 189 195 198 192 182 184 183 180
183 80 53 55 83 254 235 184 266 241 235 254 249 231 204 190 180 179 170 162 162 160 159 151 159 168 168 165 169 169 172 166 153 157 170 186 195 209 210 194 192 194 194 196 199 191 185 190 183
117 99 28 352 2 248 235 185 246 250 249 233 235 234 201 182 171 168 169 172 169 168 168 160 162 168 168 166 172 177 174 170 175 179 182 183 196 214 222 208 208 204 204 199 186 179 182 182 181
182 151 164 197 219 262 265 224 249 263 278 252 217 195 170 171 171 175 180 175 173 174 168 159 164 168 164 165 170 172 164 164 173 176 178 189 207 220 214 204 207 206 200 196 179 180 193 180 191
153 182 172 146 170 242 266 276 294 314 344 1 71 150 172 173 172 177 176 170 169 170 171 168 166 165 162 160 152 158 165 161 163 160 163 172 202 212 193 188 193 197 189 185 176 185 200 187 201
154 149 112 132 158 231 265 251 246 261 270 305 291 228 197 165 164 170 168 168 171 171 162 149 150 157 157 155 159 165 171 171 160 152 157 161 179 186 173 172 188 192 189 187 181 190 200 191 215
118 122 124 130 158 165 230 261 222 214 216 215 236 249 209 179 173 177 174 170 164 153 148 145 146 147 145 153 158 157 165 159 148 154 171 165 159 158 165 172 179 193 195 189 182 205 201 204 222
164 166 150 156 206 182 182 259 261 201 210 205 229 254 198 197 190 184 171 158 154 162 160 155 158 165 168 160 153 161 164 148 153 171 167 154 164 166 168 170 175 196 206 199 196 211 215 216 227